SL-14 DEB, 45279

Orbit data source: Space-Track

SL-14 DEB, 45279 is space debris in LEO originally from a launch on Thu, 15 Aug 1991 UTC launched from the Plesetsk Missile And Space Complex (PKMTR). Debris objects in space refer to the collection of defunct objects orbiting the Earth. Examples of debris include non-operational satellites, rocket bodies, and fragments generated from explosions, collisions, or faulty payload assembly.

Loading next visibility...
Identifier
45279, 1991-056R
Orbit
LEO
Country
Flag of CISCIS
Related business
Manufacturer
Unknown
Mission
Spacecraft
Bus & Motor
Unknown
Mass
Unknown
Launch date (UTC)
1991-08-15 (34 years ago)
Launch vehicle
Unknown
Launch site
Plesetsk Missile And Space Complex (PKMTR)
Object type
Payload
Rocket body
Debris
Shape & HBR
Unknown shape, 0.1 m
Radar Cross Section
Small (<0.1 m²)

Expand to show TLE details & history
Last TLE update: 19 hours ago

TLE from 19 hours ago
0 SL-14 DEB
1 45279U 91056R   25287.18441042  .00000740  00000-0  23232-2 0  9991
2 45279  82.5605 352.5257 0078573 272.0035  87.2082 13.01914759268624
Epoch: 2025-10-14T04:25Z
TLE epoch observation values (Epoch: 2025-10-14T04:25:33.060Z)
Latitude
-0.00001°
Longitude
-96.83853°
Altitude
1,254.932 km
Speed
7.229 km/s
True Right ascension
23h 30m 06s
True Declination
0° 00' 00"
Sunlit
Object was in full shadow at epoch
Visualization orbit readout
Latitude
Unknown
Longitude
Unknown
Altitude
Unknown
Speed
Unknown
Apparent Right ascension
Unknown
Apparent Declination
Unknown
Sunlit
N/A
Visualization observer readout
Local Sidereal Time
18:01:56
Azimuth
Unknown
Elevation
Unknown
Doppler factor
Unknown
Orbital elements
Apogee altitude
1,311.814 km
Perigee altitude
1,191.911 km
Semi-major axis
7,629.999 km
Eccentricity
0.00786
Inclination
82.5605°
RAAN
352.5257°
Arg. of periapsis
272.0035°
True anomaly
88.10791°
Mean anomaly
87.2082°
Eccentric anomaly
87.65801°
Mean motion
3.25654 °/min
Orbital period
110.55 mins
BSTAR
0.0023232
Loading maneuver chart data...
Computing Atmospheric mass density...
Loading historical data...
Loading historical data...
Loading historical data...
Loading historical data...
Loading historical data...
Loading historical data...
Loading historical data...

Documentation

Showing up to 5 results
|